AAY1281 KSFB-KEYW

Flight info

Callsign AAY1281
Flight time N/A
Altitude 38000
Route DDANY EBAYY FNTSY1
Aircraft A319/M-SDE3FGHIRWY/LB1

Departure

Time 2026-05-05 00:19
Airport Orlando Sanford International Airport (KSFB)

Arrival

Time N/A
Airport Key West International Airport (KEYW)
Time Latitude Longitude Altitude Speed Heading
2026-05-04 23:51 28.77678 -81.24359 64 ft 0 kts 169°
2026-05-05 00:07 28.77687 -81.24361 64 ft 2 kts 176°
2026-05-05 00:07 28.77704 -81.24361 64 ft 2 kts 188°
2026-05-05 00:08 28.77720 -81.24356 57 ft 2 kts 203°
2026-05-05 00:08 28.77734 -81.24346 57 ft 2 kts 220°
2026-05-05 00:08 28.77745 -81.24333 55 ft 2 kts 234°
2026-05-05 00:08 28.77754 -81.24316 57 ft 2 kts 245°
2026-05-05 00:09 28.77759 -81.24299 57 ft 2 kts 254°
2026-05-05 00:09 28.77763 -81.24282 57 ft 2 kts 262°
2026-05-05 00:09 28.77763 -81.24275 59 ft 0 kts 266°
2026-05-05 00:12 28.77763 -81.24278 58 ft 2 kts 268°
2026-05-05 00:12 28.77763 -81.24305 56 ft 4 kts 270°
2026-05-05 00:13 28.77764 -81.24363 60 ft 11 kts 270°
2026-05-05 00:13 28.77763 -81.24473 64 ft 16 kts 269°
2026-05-05 00:13 28.77777 -81.24523 57 ft 4 kts 330°
2026-05-05 00:13 28.77846 -81.24533 63 ft 15 kts
2026-05-05 00:14 28.77964 -81.24534 60 ft 19 kts 359°
2026-05-05 00:14 28.78039 -81.24540 58 ft 4 kts 335°
2026-05-05 00:14 28.78065 -81.24584 62 ft 10 kts 272°
2026-05-05 00:14 28.78065 -81.24690 63 ft 17 kts 270°
2026-05-05 00:15 28.78065 -81.24845 63 ft 22 kts 269°
2026-05-05 00:15 28.78064 -81.25030 63 ft 24 kts 271°
2026-05-05 00:15 28.78064 -81.25220 64 ft 24 kts 271°
2026-05-05 00:15 28.78063 -81.25413 57 ft 25 kts 269°
2026-05-05 00:16 28.78064 -81.25550 59 ft 4 kts 276°
2026-05-05 00:16 28.78070 -81.25566 62 ft 7 kts 305°
2026-05-05 00:16 28.78088 -81.25582 64 ft 0 kts 338°
2026-05-05 00:16 28.78089 -81.25582 64 ft 1 kts 345°
2026-05-05 00:17 28.78133 -81.25585 60 ft 0 kts 358°
2026-05-05 00:17 28.78160 -81.25564 62 ft 12 kts 58°
2026-05-05 00:17 28.78172 -81.25500 64 ft 0 kts 90°
2026-05-05 00:17 28.78172 -81.25499 64 ft 0 kts 90°
2026-05-05 00:18 28.78172 -81.25364 64 ft 52 kts 90°
2026-05-05 00:18 28.78174 -81.24629 63 ft 131 kts 90°
2026-05-05 00:18 28.78177 -81.23379 518 ft 167 kts 88°
2026-05-05 00:19 28.78188 -81.21955 1334 ft 191 kts 89°
2026-05-05 00:19 28.78208 -81.20341 2050 ft 229 kts 87°
2026-05-05 00:19 28.78515 -81.18335 2009 ft 266 kts 76°
2026-05-05 00:19 28.79025 -81.16387 2011 ft 257 kts 73°
2026-05-05 00:20 28.79571 -81.14451 2009 ft 249 kts 73°
2026-05-05 00:20 28.80110 -81.12574 2008 ft 251 kts 72°
2026-05-05 00:20 28.80648 -81.10702 2008 ft 245 kts 73°
2026-05-05 00:20 28.81186 -81.08838 2004 ft 248 kts 72°
2026-05-05 00:21 28.81708 -81.06979 1999 ft 250 kts 73°
2026-05-05 00:21 28.82133 -81.05081 2007 ft 248 kts 80°
2026-05-05 00:21 28.82383 -81.03152 2004 ft 242 kts 82°
2026-05-05 00:21 28.82617 -81.01077 2018 ft 293 kts 83°
2026-05-05 00:22 28.82901 -80.98549 2025 ft 345 kts 83°
2026-05-05 00:22 28.83194 -80.95939 1997 ft 313 kts 83°
2026-05-05 00:22 28.83458 -80.93604 1996 ft 282 kts 83°
2026-05-05 00:22 28.83699 -80.91468 2004 ft 261 kts 83°
2026-05-05 00:23 28.83926 -80.89495 2006 ft 244 kts 82°